Regional Weather Roundup
Issued by NWS

Home | Current Version | Previous Version | Text Only | Print | Product List | Glossary Off
Versions: 1 2 3 4 5 6 7 8 9 10 11 12 13 14 15 16 17 18 19 20 21 22 23 24 25 26 27 28 29 30 31 32 33 34 35 36 37 38 39 40 41 42 43 44 45 46 47 48 49 50

000
ASUS43 KMKX 040611
RWRWI

WISCONSIN REGIONAL WEATHER ROUNDUP
NATIONAL WEATHER SERVICE MILWAUKEE/SULLIVAN WI
100 AM CDT TUE AUG 04 2015

NOTE: "FAIR" INDICATES FEW OR NO CLOUDS BELOW 12,000 FEET WITH NO
SIGNIFICANT WEATHER AND/OR OBSTRUCTIONS TO VISIBILITY.

WIZ001-002-006>008-014>016-023>028-040700-
NORTHWEST WISCONSIN

CITY           SKY/WX    TMP DP  RH WIND       PRES   REMARKS
SUPERIOR ARPT  CLEAR     53  51  90 SW3       29.91R
6HR MIN TEMP:  52; 6HR MAX TEMP:  70;

ASHLAND        MOCLDY    59  54  83 W3        29.89S
6HR MIN TEMP:  59; 6HR MAX TEMP:  69;

HAYWARD        CLEAR     54  50  86 CALM      29.92S
6HR MIN TEMP:  54; 6HR MAX TEMP:  69;

SIREN          CLEAR     55  52  89 CALM      29.94S
6HR MIN TEMP:  55; 6HR MAX TEMP:  72;

CUMBERLAND     CLEAR     55  52  88 NW6       29.94S
RICE LAKE      PTCLDY    58  53  81 W3        29.95R
6HR MIN TEMP:  58; 6HR MAX TEMP:  71;

CHETEK         PTCLDY    62  55  78 W6        29.93R
6HR MIN TEMP:  62; 6HR MAX TEMP:  73;

LADYSMITH      CLEAR     61  54  77 NW6       29.93S
6HR MIN TEMP:  61; 6HR MAX TEMP:  71;

EAU CLAIRE     PTCLDY    64  53  67 N6        29.91R
6HR MIN TEMP:  63; 6HR MAX TEMP:  75;

MENOMONIE      CLEAR     62  54  76 W3        29.93R
6HR MIN TEMP:  62; 6HR MAX TEMP:  75;

NEW RICHMOND   CLEAR     58  53  83 CALM      29.95S
6HR MIN TEMP:  57; 6HR MAX TEMP:  73;

OSCEOLA        PTCLDY    57  57 100 CALM      29.97S
6HR MIN TEMP:  57; 6HR MAX TEMP:  74;

$$

WIZ003>005-009-010-017-018-040700-
NORTH CENTRAL WISCONSIN

CITY           SKY/WX    TMP DP  RH WIND       PRES   REMARKS
MANITOWISH WTR PTCLDY    56  56 100 CALM      29.90R
6HR MIN TEMP:  55; 6HR MAX TEMP:  66;

ARBOR VITAE    PTCLDY    58  56  91 CALM      29.90R
6HR MIN TEMP:  58; 6HR MAX TEMP:  66; 6HR PCP:  0.01;

WOODRUFF       PTCLDY    58  56  91 CALM      29.90R
6HR MIN TEMP:  58; 6HR MAX TEMP:  66; 6HR PCP:  0.01;

RHINELANDER    CLOUDY    59  55  87 CALM      29.91R
6HR MIN TEMP:  58; 6HR MAX TEMP:  67;

EAGLE RIVER    CLOUDY    56  56  98 W6        29.89S
6HR MIN TEMP:  55; 6HR MAX TEMP:  66; 6HR PCP:  0.03;

LAND O LAKES   MOCLDY    57  55  94 NW6       29.89S
6HR MIN TEMP:  57; 6HR MAX TEMP:  66; 6HR PCP:  0.02;

PHILLIPS       PTCLDY    58  54  88 CALM      29.91R
6HR MIN TEMP:  58; 6HR MAX TEMP:  67;

TOMAHAWK       CLOUDY    57  55  90 CALM      29.91S
6HR MIN TEMP:  57; 6HR MAX TEMP:  66;

MEDFORD        CLOUDY    61  55  81 W6        29.92R
6HR MIN TEMP:  60; 6HR MAX TEMP:  67;

MERRILL        NOT AVBL
$$

WIZ029-030-035-036-043>047-040700-
CENTRAL WISCONSIN

CITY           SKY/WX    TMP DP  RH WIND       PRES   REMARKS
WAUSAU         CLOUDY    64  55  72 NW9       29.89R
6HR MIN TEMP:  63; 6HR MAX TEMP:  70;

MOSINEE        CLOUDY    61  55  82 W3        29.91R
MARSHFIELD     CLOUDY    62  53  72 W6        29.91R
6HR MIN TEMP:  57; 6HR MAX TEMP:  71;

STEVENS POINT  CLOUDY    62  53  71 W3        29.90S
6HR MIN TEMP:  57; 6HR MAX TEMP:  70;

WAUPACA        PTCLDY    61  55  79 W3        29.90R
6HR MIN TEMP:  59; 6HR MAX TEMP:  76;

WAUTOMA        CLEAR     55  51  86 CALM      29.91S
6HR MIN TEMP:  55; 6HR MAX TEMP:  78;

WISC RAPIDS    CLOUDY    61  52  72 SW5       29.91S
6HR MIN TEMP:  56; 6HR MAX TEMP:  76; 6HR PCP: TRACE;

CAMP DOUGLAS   PTCLDY    52  52 100 E1        29.91S
6HR MIN TEMP:  51; 6HR MAX TEMP:  74;

$$

WIZ011>013-019>022-031-037>040-048>050-040700-
NORTHEAST WISCONSIN

CITY           SKY/WX    TMP DP  RH WIND       PRES   REMARKS
ANTIGO         CLOUDY    56  54  95 N8        29.91R
SHAWANO        CLEAR     59  56  87 SW3       29.89R
6HR MIN TEMP:  59; 6HR MAX TEMP:  71;

OCONTO         CLEAR     60  58  91 NW5       29.86R
6HR MIN TEMP:  56; 6HR MAX TEMP:  71;

STURGEON BAY   MOCLDY    63  54  72 NW14      29.89R
6HR MIN TEMP:  57; 6HR MAX TEMP:  70;

GREEN BAY      CLEAR     61  56  83 SW3       29.88R
6HR MIN TEMP:  59; 6HR MAX TEMP:  71;

MANITOWOC      CLEAR     63  56  78 MISG      29.88S
6HR MIN TEMP:  63; 6HR MAX TEMP:  74;

APPLETON       CLEAR     57  50  77 W6        29.89S
CLINTONVILLE   CLOUDY    55  52  88 CALM      29.88S
OSHKOSH        CLEAR     62  53  72 W3        29.89S
6HR MIN TEMP:  62; 6HR MAX TEMP:  75;

$$

WIZ032>034-041-042-053>061-040700-
SOUTHWEST WISCONSIN

CITY           SKY/WX    TMP DP  RH WIND       PRES   REMARKS
LA CROSSE      CLEAR     63  56  78 S6        29.91S
6HR MIN TEMP:  61; 6HR MAX TEMP:  78;

SPARTA         CLEAR     53  51  94 CALM      29.92F
6HR MIN TEMP:  53; 6HR MAX TEMP:  76;

VIROQUA        CLEAR     59  53  79 SW3       29.94S
6HR MIN TEMP:  56; 6HR MAX TEMP:  73;

BOSCOBEL       CLEAR     58  55  90 SW3       29.94S
6HR MIN TEMP:  56; 6HR MAX TEMP:  79;

PRAIRIE DU CHI CLEAR     58  54  85 CALM      29.93F
6HR MIN TEMP:  58; 6HR MAX TEMP:  78;

PLATTEVILLE    CLEAR     62  55  78 CALM      29.95S
6HR MIN TEMP:  59; 6HR MAX TEMP:  76;

$$

WIZ056-057-062-063-064-067-068-040700-
SOUTH CENTRAL WISCONSIN

CITY           SKY/WX    TMP DP  RH WIND       PRES   REMARKS
REEDSBURG      CLEAR     57  54  91 CALM      29.92S
6HR MIN TEMP:  56; 6HR MAX TEMP:  76;

BARABOO/DELLS  CLEAR     58  51  76 CALM      29.92S
6HR MIN TEMP:  58; 6HR MAX TEMP:  76;

LONE ROCK      CLEAR     56  53  90 CALM      29.94R
6HR MIN TEMP:  56; 6HR MAX TEMP:  78;

MINERAL POINT  CLEAR     61  54  77 CALM      29.94S
MADISON        CLEAR     62  53  72 CALM      29.92S
6HR MIN TEMP:  62; 6HR MAX TEMP:  76;

MIDDLETON      CLEAR     56  53  88 CALM      29.93S
6HR MIN TEMP:  56; 6HR MAX TEMP:  77;

WATERTOWN      CLEAR     56  56 100 CALM      29.91S
6HR MIN TEMP:  55; 6HR MAX TEMP:  76;

MONROE         CLEAR     64  54  68 W10       29.94S
JANESVILLE     CLEAR     61  55  82 CALM      29.92S
$$

WIZ051-052-058>065-066-070>072-040700-
SOUTHEAST WISCONSIN

CITY           SKY/WX    TMP DP  RH WIND       PRES   REMARKS
MILWAUKEE      PTCLDY    69  51  52 NW5       29.90S
6HR MIN TEMP:  69; 6HR MAX TEMP:  79;

WAUKESHA       CLEAR     61  52  72 W5        29.92F
MILWAUKEE/TIMM CLEAR     63  50  63 CALM      29.91S
RACINE         CLEAR     65  52  62 W5        29.92R
6HR MIN TEMP:  65; 6HR MAX TEMP:  78;

BURLINGTON     CLEAR     56  53  90 SW3       29.92S
6HR MIN TEMP:  56; 6HR MAX TEMP:  75;

KENOSHA        CLEAR     59  53  80 SW3       29.91S
6HR MIN TEMP:  59; 6HR MAX TEMP:  76;

FOND DU LAC    CLEAR     61  54  77 SW7       29.90S
6HR MIN TEMP:  58; 6HR MAX TEMP:  76;

SHEBOYGAN      CLEAR     61  55  81 W5        29.89S
6HR MIN TEMP:  60; 6HR MAX TEMP:  76;

WEST BEND      CLEAR     61  52  72 CALM      29.91R
JUNEAU         CLEAR     57  53  86 W3        29.92S
6HR MIN TEMP:  56; 6HR MAX TEMP:  74;

$$

LSZ147-162-040700-
LAKE SUPERIOR

STATION/POSITION TIME  TEMP    WIND        PRES    WAVE
                       AIR SEA DIR/SP/G            HT/PER
                 (UTC) (F)     (DEG/KT/KT) (MB)    (FT/S)
W MID LAKE BUOY  0550   57 56  280/ 10/ 12 1010.5R   1/ 4
DEVILS ISLAND    0600   57     240/  9/ 11 1011.8R
PORT WING        0540   63     250/  7/ 10 1012.5R
SAXON HARBOR     0540   61     200/  2     1011.5R
$$

LMZ867-665-643>646-040700-
LAKE MICHIGAN

STATION/POSITION TIME  TEMP    WIND        PRES    WAVE
                       AIR SEA DIR/SP/G            HT/PER


USA.gov is the U.S. government's official web portal to all federal, state and local government web resources and services.